[[{"header":{"parameterUnit":"m.s-1","parameterCategory":1,"la1":30.2991,"la2":30.254,"lo1":-89.0895,"lo2":-89.0444,"dy":0.0017,"dx":0.0017,"nx":28,"ny":28,"refTime":"2024-07-01T21:00:00:Z","depth":0,"parameterNumber":2,"parameterNumberName":"U-component_of_WINDS"},"data":[0,0,0,0,0,0,0,0,0,0,0,0,0,0,0,0,0,0,0,0,0,0,0,0,0,0,0,0,0,0,0,0,0,0,0,0,0,0,0,0,0,0,0,0,0,0,0,0,0,0,0,0,0,0,0,0,0,0,-0.1062,-0.106,0,-0.0872,-0.087,-0.0868,-0.0785,-0.0785,-0.0785,-0.0786,-0.0587,-0.0582,-0.0576,0,0,0,0,0,0,0,0,0,0,0,0,0,-0.1351,-0.1346,-0.1062,-0.1059,-0.1057,-0.0872,-0.087,-0.0867,-0.0785,-0.0785,-0.0786,-0.0786,-0.0589,-0.0582,-0.0576,0,0,0,0,0,0,0,0,0,0,0,0,0,-0.12,-0.1345,-0.1062,-0.0994,-0.0986,-0.0873,-0.0869,-0.0866,-0.0785,-0.0785,-0.0786,-0.0786,-0.0591,-0.0583,-0.0575,-0.0514,0,0,-0.0549,-0.0546,0,0,0,0,0,0,0,0,-0.1209,-0.1189,-0.1006,-0.0998,-0.0989,-0.0853,-0.0899,-0.0748,-0.0785,-0.0861,-0.0786,-0.0786,-0.0675,-0.066,-0.0623,-0.0505,-0.0496,-0.0549,-0.0544,-0.054,-0.0538,0,0,0,0,0,0,0,-0.1219,-0.1197,-0.0986,-0.1004,-0.0993,-0.0972,-0.0951,-0.087,-0.0767,-0.0854,-0.0848,-0.0827,-0.067,-0.0631,-0.0618,-0.0493,-0.0549,-0.0541,-0.0536,-0.0533,-0.0318,-0.0318,0,0,0,0,0,0,-0.1241,-0.1206,-0.0992,-0.0981,-0.1102,-0.0967,-0.0943,-0.0896,-0.0768,-0.0749,-0.0827,-0.0824,-0.0645,-0.0627,-0.061,-0.0532,-0.054,-0.0532,-0.0527,-0.0319,-0.0318,-0.0318,0,0,0,0,0,0,-0.1248,-0.1223,-0.1,-0.1092,-0.1062,-0.0961,-0.0909,-0.0892,-0.0853,-0.0747,-0.0728,-0.0806,-0.0645,-0.0622,-0.0539,-0.0524,-0.0528,-0.0521,-0.032,-0.0319,-0.0318,-0.0374,0,0,0,0,0,0,-0.1257,-0.1226,-0.1202,-0.1092,-0.1057,-0.0933,-0.0908,-0.0888,-0.0839,-0.0833,-0.0723,-0.0705,-0.0643,-0.0552,-0.0531,-0.0512,-0.0514,-0.0321,-0.0319,-0.0318,-0.0373,-0.0375,-0.0377,0,0,0,0,0,-0.1267,-0.1224,-0.1201,-0.1176,-0.1025,-0.0932,-0.0912,-0.0844,-0.0838,-0.0813,-0.0746,-0.0708,-0.053,-0.0545,-0.052,-0.0499,-0.0321,-0.032,-0.0318,-0.0373,-0.0375,-0.0377,0,0,0,0,0,0,-0.1332,-0.1208,-0.1181,-0.1101,-0.1029,-0.0919,-0.0885,-0.0849,-0.0774,-0.0772,-0.0689,-0.0665,-0.059,-0.0536,-0.0555,-0.0434,-0.0422,-0.0416,-0.0472,-0.0473,-0.0475,-0.0489,-0.0507,0,0,0,0,0,-0.1338,-0.1274,-0.1168,-0.1108,-0.1073,-0.0986,-0.0942,-0.0897,-0.0817,-0.0785,-0.0711,-0.0635,-0.0562,-0.0515,-0.0441,-0.0366,-0.0341,-0.0339,-0.0341,-0.0343,-0.0338,-0.0296,-0.0294,-0.0312,-0.0312,-0.0313,0,0,-0.1348,-0.1272,-0.1236,-0.1119,-0.1057,-0.0992,-0.096,-0.0892,-0.0843,-0.0774,-0.0692,-0.0636,-0.0545,-0.0467,-0.0428,-0.0419,-0.0328,-0.0341,-0.0344,-0.0337,-0.0294,-0.0293,-0.0291,-0.0311,-0.0312,-0.0312,0,0,-0.1332,-0.1269,-0.1212,-0.1152,-0.1059,-0.1002,-0.0989,-0.0885,-0.0846,-0.0763,-0.0711,-0.0651,-0.0526,-0.0464,-0.0416,-0.0382,-0.0345,-0.036,-0.0369,-0.0329,-0.0328,-0.0326,-0.0314,-0.0311,-0.0356,-0.0356,-0.0356,0,-0.1356,-0.1256,-0.1187,-0.1123,-0.1074,-0.1012,-0.0954,-0.0898,-0.0786,-0.0753,-0.0745,-0.0589,-0.0523,-0.043,-0.0423,-0.0386,-0.0368,-0.0372,-0.0334,-0.0331,-0.0329,-0.0317,-0.0312,-0.0359,-0.0358,-0.0358,-0.0358,0,-0.129,-0.1222,-0.1188,-0.1084,-0.1031,-0.097,-0.0892,-0.0846,-0.0806,-0.075,-0.0667,-0.0587,-0.0497,-0.0472,-0.0431,-0.0374,-0.0371,-0.035,-0.0336,-0.0331,-0.0318,-0.0313,-0.0362,-0.0361,-0.0361,-0.036,0,0,-0.1307,-0.1169,-0.1157,-0.111,-0.1005,-0.0951,-0.0889,-0.0803,-0.0766,-0.0691,-0.0637,-0.0535,-0.0515,-0.0461,-0.0413,-0.0378,-0.0357,-0.036,-0.0357,-0.0363,-0.029,-0.0306,-0.0302,-0.0333,-0.0332,-0.0331,-0.0298,0,-0.1278,-0.1164,-0.1101,-0.1013,-0.095,-0.0893,-0.0838,-0.0768,-0.0715,-0.0653,-0.0594,-0.0523,-0.0502,-0.047,-0.0433,-0.0368,-0.0341,-0.0369,-0.028,-0.0278,-0.0304,-0.0295,-0.0311,-0.0284,-0.0292,-0.0291,-0.0291,0,-0.1227,-0.1156,-0.1063,-0.0967,-0.0939,-0.0891,-0.0809,-0.0751,-0.0671,-0.0634,-0.0576,-0.053,-0.0461,-0.0455,-0.036,-0.0381,-0.0341,-0.0304,-0.0301,-0.0289,-0.0283,-0.0282,-0.0273,-0.0269,-0.0282,-0.0283,-0.0283,0,-0.125,-0.1131,-0.106,-0.1021,-0.0908,-0.0876,-0.0828,-0.0748,-0.0701,-0.0629,-0.0598,-0.0519,-0.0475,-0.0415,-0.0348,-0.035,-0.0261,-0.0248,-0.0228,-0.023,-0.0211,-0.0212,-0.0195,-0.0187,-0.0187,-0.0187,-0.0187,0,-0.1222,-0.1167,-0.1069,-0.1025,-0.0962,-0.0892,-0.0831,-0.0778,-0.0709,-0.0653,-0.0598,-0.0548,-0.0463,-0.0402,-0.0349,-0.028,-0.026,-0.0229,-0.0215,-0.0233,-0.0237,-0.0205,-0.0205,-0.0186,-0.0186,-0.0186,-0.0187,0,-0.1236,-0.1168,-0.1087,-0.0988,-0.0962,-0.092,-0.0835,-0.079,-0.0736,-0.0667,-0.0647,-0.0561,-0.0486,-0.0415,-0.0314,-0.0279,-0.0209,-0.0192,-0.0237,-0.0229,-0.0214,-0.0216,-0.0174,-0.0165,-0.0165,-0.0165,-0.0165,0,-0.1222,-0.1179,-0.1077,-0.1037,-0.099,-0.0926,-0.0879,-0.0809,-0.0762,-0.067,-0.0637,-0.0559,-0.0492,-0.0376,-0.0304,-0.0228,-0.0208,-0.0198,-0.0195,-0.0216,-0.0207,-0.0211,-0.0206,-0.02,-0.02,-0.02,-0.02,0,-0.1206,-0.1176,-0.1111,-0.1035,-0.0981,-0.0917,-0.0851,-0.0821,-0.0739,-0.0689,-0.0614,-0.0563,-0.0462,-0.0385,-0.0301,-0.025,-0.0212,-0.0203,-0.0194,-0.0211,-0.0239,-0.0224,-0.0241,-0.0203,-0.0203,-0.0203,-0.0202,-0.0202,-0.1205,-0.1165,-0.1088,-0.1018,-0.0962,-0.0902,-0.0856,-0.0798,-0.0734,-0.0647,-0.061,-0.0534,-0.0457,-0.034,-0.0291,-0.023,-0.022,-0.0208,-0.0204,-0.0202,-0.0206,-0.025,-0.0214,-0.0214,-0.0214,-0.0214,-0.0214,0,-0.1186,-0.1135,-0.1071,-0.0983,-0.0928,-0.0899,-0.0826,-0.0781,-0.0716,-0.0648,-0.0585,-0.0499,-0.0426,-0.035,-0.0272,-0.0238,-0.0218,-0.022,-0.0221,-0.021,-0.0219,-0.0234,-0.0237,-0.0237,-0.0237,-0.0237,-0.0237,-0.0237,-0.117,-0.1101,-0.1062,-0.0965,-0.0913,-0.0839,-0.08,-0.0745,-0.0691,-0.0598,-0.0537,-0.0489,-0.0418,-0.0335,-0.0267,-0.0246,-0.022,-0.0226,-0.0201,-0.021,-0.0209,-0.0208,-0.0221,-0.0221,-0.0221,-0.0196,-0.0196,-0.0196]},{"header":{"parameterUnit":"m.s-1","parameterCategory":1,"la1":30.2991,"la2":30.254,"lo1":-89.0895,"lo2":-89.0444,"dy":0.0017,"dx":0.0017,"nx":28,"ny":28,"refTime":"2024-07-01T21:00:00:Z","depth":0,"parameterNumber":3,"parameterNumberName":"V-component_of_WINDS"},"data":[0,0,0,0,0,0,0,0,0,0,0,0,0,0,0,0,0,0,0,0,0,0,0,0,0,0,0,0,0,0,0,0,0,0,0,0,0,0,0,0,0,0,0,0,0,0,0,0,0,0,0,0,0,0,0,0,0,0,4.1693,4.1693,0,4.1693,4.1693,4.1693,4.1658,4.1657,4.1656,4.1656,4.1654,4.1655,4.1656,0,0,0,0,0,0,0,0,0,0,0,0,0,4.1664,4.1665,4.1693,4.1693,4.1693,4.1693,4.1693,4.1693,4.1658,4.1657,4.1656,4.1655,4.1654,4.1655,4.1656,0,0,0,0,0,0,0,0,0,0,0,0,0,4.1672,4.1665,4.1693,4.1676,4.1675,4.1693,4.1693,4.1693,4.1659,4.1657,4.1656,4.1655,4.1654,4.1655,4.1656,4.169,0,0,4.166,4.166,0,0,0,0,0,0,0,0,4.1671,4.1673,4.1679,4.1677,4.1676,4.1674,4.1682,4.1692,4.1659,4.1665,4.1656,4.1654,4.1662,4.1662,4.1665,4.169,4.169,4.166,4.1661,4.1661,4.1662,0,0,0,0,0,0,0,4.1671,4.1673,4.1693,4.1679,4.1677,4.1668,4.1668,4.1684,4.1671,4.1664,4.1662,4.1662,4.1661,4.1664,4.1665,4.169,4.166,4.1661,4.1662,4.1662,4.1743,4.1745,0,0,0,0,0,0,4.1673,4.1672,4.1693,4.1693,4.167,4.167,4.1669,4.1676,4.1671,4.1668,4.1663,4.166,4.1663,4.1664,4.1665,4.1705,4.1661,4.1662,4.1663,4.1742,4.1744,4.1745,0,0,0,0,0,0,4.1672,4.1675,4.1693,4.1682,4.1684,4.1672,4.1679,4.1677,4.168,4.167,4.1667,4.1669,4.1662,4.1663,4.1684,4.1704,4.1663,4.1664,4.174,4.1742,4.1744,4.1785,0,0,0,0,0,0,4.1672,4.1675,4.1688,4.1683,4.1684,4.1713,4.1681,4.1678,4.1682,4.1678,4.1675,4.1673,4.1661,4.1683,4.1686,4.1705,4.1665,4.1738,4.1741,4.1744,4.1782,4.1788,4.1794,0,0,0,0,0,4.1671,4.17,4.1689,4.1692,4.1701,4.1714,4.1715,4.1701,4.1684,4.1697,4.169,4.1673,4.1701,4.1685,4.1688,4.1708,4.1737,4.174,4.1744,4.1779,4.1787,4.1794,0,0,0,0,0,0,4.1708,4.1699,4.1687,4.1715,4.1716,4.1708,4.1725,4.171,4.1716,4.1712,4.1694,4.1693,4.1718,4.1715,4.1697,4.1741,4.1716,4.172,4.1742,4.175,4.1756,4.1756,4.1666,0,0,0,0,0,4.1719,4.1731,4.1722,4.1748,4.1749,4.1737,4.1742,4.1731,4.1731,4.1731,4.1726,4.1727,4.1736,4.1742,4.175,4.1781,4.178,4.1796,4.1802,4.1807,4.1811,4.1828,4.1835,4.1756,4.1756,4.1756,0,0,4.1743,4.174,4.1748,4.1755,4.1755,4.1767,4.1737,4.1752,4.1761,4.1733,4.1754,4.175,4.1749,4.1775,4.1787,4.1774,4.1833,4.1811,4.1815,4.1817,4.1832,4.1839,4.1846,4.1758,4.1758,4.1757,0,0,4.1793,4.1792,4.1813,4.1813,4.1812,4.1804,4.1809,4.1804,4.18,4.182,4.1799,4.181,4.1826,4.1826,4.1829,4.1878,4.1863,4.1881,4.1913,4.1929,4.1935,4.1941,4.1959,4.1966,4.1885,4.1885,4.1885,0,4.1823,4.1842,4.1826,4.1842,4.1846,4.1821,4.1842,4.1842,4.1844,4.1848,4.1833,4.1853,4.185,4.1877,4.1889,4.1891,4.1896,4.1882,4.1936,4.1941,4.1946,4.1963,4.197,4.1887,4.1887,4.1887,4.1887,0,4.1879,4.1892,4.1909,4.1912,4.1917,4.1936,4.1922,4.193,4.1918,4.1911,4.1931,4.1927,4.1934,4.1939,4.1928,4.1964,4.1956,4.1939,4.1914,4.1956,4.1972,4.1979,4.1891,4.189,4.1889,4.1889,0,0,4.1954,4.1947,4.1954,4.1954,4.1951,4.1961,4.1978,4.1985,4.1992,4.1993,4.2008,4.2022,4.2006,4.2008,4.1997,4.2011,4.2051,4.1992,4.1991,4.2004,4.2091,4.2105,4.2113,4.204,4.2041,4.2042,4.2091,0,4.2003,4.2033,4.2018,4.205,4.2062,4.2038,4.2053,4.2052,4.2046,4.2055,4.2048,4.2058,4.2036,4.2037,4.205,4.2043,4.2068,4.2039,4.2054,4.2054,4.2056,4.2121,4.2136,4.2183,4.2097,4.2098,4.2099,0,4.2065,4.207,4.2103,4.2097,4.2102,4.2116,4.212,4.2129,4.2128,4.2122,4.2125,4.211,4.2126,4.21,4.2123,4.2103,4.2108,4.2105,4.2107,4.2109,4.208,4.2126,4.2197,4.2205,4.2109,4.2108,4.2107,0,4.2118,4.2132,4.2153,4.2155,4.2149,4.2159,4.2157,4.2155,4.2159,4.2163,4.2166,4.2172,4.2175,4.218,4.2167,4.2149,4.2191,4.2164,4.2188,4.2188,4.2199,4.2199,4.2273,4.22,4.22,4.22,4.22,0,4.2175,4.2197,4.2177,4.219,4.2213,4.2196,4.2219,4.2214,4.2212,4.2224,4.2203,4.2214,4.2195,4.2205,4.2194,4.2215,4.2217,4.2213,4.221,4.2215,4.2216,4.2219,4.2216,4.2202,4.2201,4.2201,4.22,0,4.2239,4.2226,4.2248,4.2241,4.2239,4.2256,4.225,4.2262,4.2253,4.2269,4.2271,4.2258,4.2269,4.2255,4.2264,4.2257,4.2286,4.2277,4.2286,4.2284,4.2309,4.2307,4.239,4.24,4.2319,4.2319,4.232,0,4.2277,4.2293,4.2286,4.2293,4.2292,4.2303,4.2307,4.229,4.2296,4.2296,4.2308,4.2316,4.2322,4.234,4.2331,4.2338,4.233,4.2359,4.2331,4.2336,4.2332,4.2332,4.2334,4.2365,4.2366,4.2366,4.2367,0,4.2346,4.2339,4.2347,4.2353,4.2359,4.2362,4.2364,4.2371,4.2353,4.236,4.237,4.2375,4.2384,4.2393,4.2397,4.2395,4.2379,4.2376,4.2382,4.2388,4.2393,4.2392,4.2303,4.2374,4.2373,4.2373,4.2373,4.2372,4.2399,4.2412,4.2409,4.2419,4.2418,4.242,4.2431,4.2424,4.2432,4.2439,4.2428,4.2441,4.2439,4.2443,4.2442,4.2452,4.244,4.2449,4.2451,4.2454,4.2458,4.239,4.2453,4.2453,4.2452,4.2452,4.2452,0,4.2468,4.2465,4.2474,4.2477,4.2484,4.2467,4.2468,4.2476,4.2487,4.2487,4.2493,4.2505,4.2513,4.2505,4.2512,4.2521,4.2514,4.2524,4.2523,4.2523,4.2468,4.2463,4.253,4.253,4.253,4.253,4.253,4.2529,4.2505,4.2526,4.2518,4.2539,4.2536,4.2549,4.2551,4.2553,4.2552,4.2566,4.2573,4.2567,4.2564,4.257,4.2577,4.2574,4.2578,4.2591,4.2586,4.2535,4.2527,4.252,4.2515,4.2592,4.2592,4.264,4.2641,4.2641]}]]